Temperature
12 12 12 12 12 12 12 12 13 13 13 13 14 14 14 14 14 15 15 15 15 15 15 15 15 15 15 15 15 15 15 15 15 15 15 15 15 15 15 15 15 15 15
12 11 11 12 12 12 12 12 12 12 13 13 13 13 14 14 14 14 14 14 15 15 15 15 15 15 15 15 14 14 15 15 15 15 15 14 14 14 14 14 14 14 14
12 11 11 11 11 11 11 12 12 12 12 12 12 13 13 13 13 13 14 14 14 14 14 14 14 14 14 14 14 14 14 14 14 14 14 14 14 14 14 14 14 14 14
12 11 11 11 11 11 11 11 12 12 12 12 12 12 12 13 13 13 13 13 13 14 14 14 14 14 14 14 14 14 14 14 14 14 14 14 14 14 14 13 13 13 13
12 11 11 11 11 11 11 11 11 11 11 11 12 12 12 12 12 13 13 13 13 13 13 13 13 13 13 13 13 14 14 14 14 14 14 13 13 13 13 13 13 13 13
12 11 11 11 11 11 11 11 11 11 11 11 11 11 12 12 12 12 12 12 13 13 13 13 13 13 13 13 13 13 14 14 14 14 14 13 13 13 13 13 13 13 12
12 11 11 11 11 11 11 11 10 10 11 10 11 11 11 11 12 12 12 12 12 12 12 13 13 13 13 13 13 13 13 13 14 14 14 13 13 13 13 13 13 13 13
12 11 11 11 11 10 10 10 10 10 10 10 10 10 11 11 11 12 12 12 12 12 12 12 12 13 13 13 13 13 13 13 14 14 14 13 13 13 13 13 13 13 12
12 11 11 11 11 10 10 10 10 10 10 10 10 10 10 11 11 11 11 12 12 12 12 12 12 12 13 13 13 13 13 13 13 14 14 13 13 13 13 13 13 13 12
11 11 11 11 11 10 10 9 9 10 10 10 9 10 10 10 11 11 11 11 11 11 11 12 12 12 13 13 13 13 13 13 13 13 13 13 13 13 13 13 13 12 12
11 11 11 11 10 10 10 10 10 10 10 10 9 9 10 10 10 11 11 11 11 11 11 12 12 12 13 13 13 13 13 13 13 13 13 12 12 12 12 12 12 12 12
11 11 11 11 11 10 10 10 10 10 10 10 10 10 9 10 10 10 10 11 11 11 11 12 12 12 12 13 13 13 13 13 12 12 12 12 12 12 12 12 12 12 12
12 12 11 11 11 11 10 10 10 10 10 10 10 10 9 10 10 10 10 10 11 11 11 11 12 12 12 12 13 13 13 12 12 12 12 12 12 12 12 12 12 12 11
12 12 12 11 11 11 11 10 10 10 10 10 10 10 10 10 10 10 10 10 10 11 11 11 12 12 12 12 12 12 12 12 12 12 12 12 11 11 11 11 11 11 11
13 13 12 12 11 11 11 10 10 10 10 10 10 10 10 10 10 10 10 10 10 11 11 11 11 12 12 12 12 12 12 12 12 12 12 11 11 11 11 10 10 10 10
14 13 13 12 12 11 11 11 11 10 10 10 10 10 10 10 10 10 10 10 10 11 11 11 11 11 11 12 12 12 11 11 11 11 11 11 11 11 10 10 10 10 10
14 13 13 12 12 12 11 11 11 11 11 10 10 11 11 11 11 11 10 10 10 11 11 11 11 11 11 11 11 11 11 11 11 11 11 11 11 10 10 10 10 10 9
14 13 13 13 12 12 12 12 11 11 11 11 11 11 11 11 11 11 10 10 10 10 10 10 11 11 11 11 11 11 11 11 11 11 11 10 10 10 10 10 10 9 9
14 13 13 13 12 12 12 12 12 12 11 11 11 11 11 11 11 11 11 10 10 10 10 10 10 10 10 10 10 10 10 10 10 10 10 10 10 10 10 10 10 9 9
14 14 13 13 13 13 12 12 12 12 12 12 11 11 11 11 11 11 11 10 10 10 10 10 10 10 10 10 10 10 10 10 10 10 10 10 10 9 9 9 9 9 9
14 14 14 13 13 13 13 13 13 13 12 12 12 12 11 11 11 10 10 10 10 10 10 10 10 10 10 10 10 10 10 10 10 9 9 9 9 9 9 9 9 9 9
14 14 14 14 13 13 13 13 13 13 13 12 12 12 12 12 11 11 11 11 11 11 11 11 11 10 10 10 10 10 10 10 9 9 9 9 9 9 9 9 9 8 8
14 14 14 14 13 13 13 13 13 13 13 13 12 12 12 12 11 11 11 11 11 11 11 11 11 11 11 11 10 10 10 9 9 9 9 9 9 9 9 9 8 8 8
15 14 14 14 13 13 13 13 13 13 13 13 13 12 12 12 12 12 11 11 11 12 12 12 12 11 11 11 11 11 10 10 10 10 9 9 9 9 8 8 8 8 8
15 14 14 14 13 13 13 13 13 13 13 13 13 13 12 12 12 12 12 12 12 12 12 12 12 12 12 12 12 12 12 11 11 11 10 10 9 9 9 8 8 8 8
15 14 14 14 13 13 13 13 13 13 13 13 13 13 13 12 12 12 12 12 12 12 12 12 12 12 12 12 12 12 12 12 11 11 11 11 10 10 10 9 9 8 8
Wind_Speed
8 7 7 7 7 7 7 7 7 7 7 7 6 6 5 4 2 1 1 2 3 4 5 6 6 6 6 5 4 4 3 4 4 2 1 2 3 2 2 4 7 9 8
7 8 8 8 8 8 8 8 7 7 7 7 7 6 7 6 4 3 1 1 2 3 4 5 6 6 6 5 5 5 4 4 4 4 2 2 2 2 2 2 5 8 10
7 8 8 9 9 9 9 8 8 8 8 8 8 8 7 7 6 5 4 2 2 2 3 5 6 7 6 5 5 5 4 4 3 4 3 2 2 2 3 3 5 6 9
7 8 8 9 9 9 9 9 9 9 9 9 9 9 8 8 8 7 5 3 3 3 3 4 5 6 6 6 5 5 5 4 4 4 4 3 3 3 3 3 4 4 5
7 7 8 8 8 8 8 9 9 9 10 9 9 9 9 8 8 8 6 4 4 4 4 4 5 6 6 4 4 5 5 5 4 4 4 3 3 3 3 3 5 6 5
7 7 7 7 8 8 8 8 8 8 8 8 8 8 9 8 11 11 7 4 3 4 4 5 6 6 7 7 7 6 5 5 5 4 4 4 4 4 4 5 6 6 3
6 6 7 7 7 8 9 8 8 8 7 7 7 7 7 9 13 12 10 4 4 4 4 4 5 6 6 6 7 8 6 4 4 5 5 5 5 5 5 5 5 5 5
6 6 6 7 7 7 7 7 7 6 6 6 7 7 7 10 14 13 10 4 4 5 5 5 5 5 5 5 5 7 7 7 4 5 6 6 5 4 5 6 8 8 7
6 6 6 7 7 7 7 6 5 5 5 5 6 7 7 9 14 13 10 3 5 6 7 7 6 6 6 6 7 8 8 8 12 15 14 12 12 11 8 7 7 8 6
6 6 6 5 6 7 7 6 5 4 5 4 5 6 7 7 12 14 11 4 5 5 6 7 10 8 7 5 5 7 8 6 7 8 7 8 8 8 9 6 5 7 5
5 4 5 5 5 5 5 5 5 5 5 5 5 5 6 8 11 14 12 5 4 5 5 5 5 8 8 6 6 6 7 6 5 6 6 5 5 5 5 7 6 5 5
3 3 3 4 5 5 4 5 5 6 6 6 6 5 5 6 9 11 12 11 7 6 5 4 4 7 9 9 7 7 8 7 5 6 6 6 6 6 6 7 11 12 10
2 1 1 3 3 4 5 6 6 6 6 5 6 5 5 6 8 12 11 11 10 6 5 6 6 7 7 7 8 8 6 5 5 6 6 6 5 5 5 6 9 13 14
2 1 1 3 4 4 4 4 5 6 6 6 6 6 5 6 7 7 5 5 6 5 4 5 7 8 7 6 5 5 5 5 6 6 6 5 4 4 4 4 5 6 6
4 3 2 3 3 3 3 3 4 4 3 3 4 5 5 5 6 8 5 4 4 3 2 3 3 3 4 4 4 4 4 5 5 4 5 5 4 4 3 3 3 5 5
1 2 2 2 2 2 3 3 3 3 3 4 4 4 3 4 6 8 8 7 7 5 3 3 4 4 3 3 4 4 4 4 4 4 5 4 4 4 3 2 2 4 6
3 2 2 1 1 2 2 3 3 2 1 1 2 3 3 4 5 6 7 8 6 4 3 4 3 3 3 3 3 4 4 3 4 4 4 4 4 4 4 3 3 4 5
3 2 2 2 2 2 1 1 2 3 3 3 2 2 1 1 3 5 6 5 2 3 3 3 3 3 3 3 3 3 3 3 3 3 4 3 3 3 3 3 3 4 4
4 3 4 3 2 3 2 2 2 2 3 3 4 3 4 3 4 5 4 1 2 3 3 3 3 3 3 4 3 3 3 3 3 3 4 3 3 3 3 4 5 5 3
2 3 3 2 3 4 4 4 3 3 3 3 4 4 3 3 2 2 1 1 2 3 3 3 3 3 3 3 3 2 2 3 3 3 3 3 2 3 4 5 5 4 2
5 6 8 4 4 4 4 4 4 4 3 3 4 5 5 2 2 3 2 2 2 2 3 3 3 2 2 2 1 1 1 3 3 3 4 3 2 2 2 3 3 3 3
5 5 6 6 6 5 4 4 4 3 4 4 5 5 6 3 3 3 4 4 3 2 3 3 3 3 2 1 1 2 2 2 4 3 4 4 3 3 2 2 2 2 3
4 5 5 6 6 6 5 4 4 4 4 5 6 7 6 5 5 4 4 5 5 4 3 2 2 3 4 3 1 0 0 1 3 4 4 4 3 3 3 3 3 3 3
6 6 6 5 5 5 5 6 6 6 5 5 5 6 7 7 6 6 5 5 6 5 5 5 4 5 7 6 4 2 1 3 5 4 3 2 3 2 3 3 3 3 3
7 7 6 6 5 5 6 6 6 6 5 6 5 5 6 7 7 6 6 6 7 6 7 8 7 6 8 10 8 7 6 5 5 3 2 1 0 1 1 2 2 2 3
7 7 6 6 6 5 5 5 5 5 5 5 5 6 6 6 6 7 7 7 7 7 6 7 11 12 11 11 12 13 12 10 7 5 2 1 1 3 3 2 3 3 3
Wind_Direction
2 359 358 6 5 9 11 8 6 9 17 22 25 23 24 21 23 99 170 173 189 191 187 183 186 177 169 167 162 164 166 160 169 177 174 165 166 151 149 152 143 139 146
6 6 13 20 18 20 21 17 12 17 19 22 27 28 30 25 25 29 71 150 170 184 182 168 168 164 158 158 162 167 164 161 163 166 169 151 140 136 140 132 127 129 125
15 12 17 23 21 22 21 20 18 22 25 25 30 31 31 27 27 26 34 61 107 143 157 155 155 150 148 151 157 160 160 164 155 152 157 144 140 138 120 112 112 118 123
31 23 19 21 21 22 21 22 22 22 28 28 30 27 28 29 26 18 20 45 82 87 98 124 136 144 149 150 158 161 158 153 147 148 146 142 139 138 125 130 120 116 119
39 31 20 21 20 21 23 25 28 26 30 27 29 26 23 25 21 11 6 34 72 85 87 96 105 115 122 135 151 159 157 153 150 150 148 137 144 143 151 149 132 114 102
46 36 23 24 20 20 22 23 26 27 25 26 27 26 25 21 12 17 14 23 66 85 97 102 109 105 107 111 118 131 143 154 161 158 155 154 163 154 149 142 137 131 114
45 43 33 28 26 25 22 21 23 25 20 19 22 23 26 18 17 17 11 23 73 80 85 101 114 112 107 112 109 101 86 88 142 151 148 151 146 156 144 136 137 126 123
37 41 41 33 23 21 24 25 22 18 14 16 19 19 21 22 20 17 9 38 68 84 83 78 90 95 97 113 111 90 72 54 78 108 105 98 96 107 124 132 127 112 104
37 36 43 38 27 18 18 21 17 10 11 20 20 22 24 22 21 20 16 47 65 72 72 69 74 77 69 87 105 102 95 80 75 90 98 98 91 87 99 111 121 125 121
42 36 40 44 38 25 15 9 8 11 10 25 31 34 33 29 28 27 24 55 69 76 71 70 62 59 63 82 118 115 111 110 110 102 94 99 96 90 96 111 129 135 130
54 40 36 36 52 46 11 360 9 12 15 26 36 44 47 41 33 32 33 47 61 76 72 63 51 51 61 72 96 112 129 134 125 118 111 97 83 74 75 82 90 118 123
76 57 57 51 36 38 24 9 16 15 18 27 29 35 44 45 36 30 39 46 54 71 72 66 61 62 65 67 79 93 108 111 104 97 91 86 81 72 69 71 74 75 82
105 89 92 100 89 46 28 23 19 18 18 21 23 27 34 41 31 28 38 51 55 66 71 78 76 79 78 73 71 76 88 99 101 100 96 91 90 90 78 73 69 70 64
176 190 137 83 76 75 46 32 39 25 17 15 17 17 22 38 25 11 13 44 59 64 72 74 67 67 76 80 76 73 76 96 109 111 108 101 94 89 95 108 108 98 78
203 181 144 115 99 94 94 50 52 74 60 28 9 11 20 22 7 4 15 25 31 37 40 68 70 68 62 63 76 82 83 89 94 103 109 110 108 101 91 90 112 116 111
237 119 113 136 144 151 149 135 61 84 103 74 52 40 65 44 7 14 23 29 27 15 44 78 77 76 80 80 85 85 82 88 97 104 111 121 127 127 122 106 99 114 125
268 166 149 146 158 200 190 174 169 175 171 13 22 50 59 28 15 11 11 4 355 3 67 81 82 81 81 83 82 88 89 90 99 108 117 123 127 127 127 123 114 111 119
255 158 157 173 218 248 242 215 163 166 176 193 213 228 237 351 351 347 350 351 16 63 82 94 91 84 84 87 88 90 92 87 94 109 112 115 118 122 127 131 121 120 127
228 191 180 190 207 236 234 216 212 186 169 158 154 182 223 244 283 301 322 335 95 92 85 87 89 88 85 85 83 91 101 102 97 98 101 101 112 119 121 115 113 110 116
220 177 176 203 228 228 222 218 213 204 187 172 161 160 178 205 221 213 219 53 103 113 110 101 83 80 88 90 81 73 100 107 104 106 115 105 93 109 126 132 144 158 174
209 189 189 213 241 241 228 221 211 202 197 176 146 140 154 217 207 160 159 155 133 139 137 132 130 114 104 117 138 204 167 151 148 136 131 133 128 120 128 140 147 153 146
218 191 185 204 221 230 231 226 219 209 199 174 155 161 170 211 240 198 178 173 166 147 139 144 163 158 148 158 216 222 200 165 152 148 144 144 141 141 136 138 148 147 143
229 232 207 205 209 211 215 233 233 223 216 200 174 166 179 207 219 203 188 175 165 165 156 156 178 161 166 200 233 35 66 178 155 145 145 149 157 168 169 175 173 167 175
215 228 227 218 212 206 204 217 225 220 213 206 192 181 183 194 199 195 189 174 168 171 173 182 200 196 183 181 189 194 68 73 88 93 105 132 161 176 167 161 172 196 180
208 218 218 218 219 212 210 218 227 224 212 203 201 197 190 186 188 189 183 176 173 180 185 187 196 207 198 184 183 176 162 146 119 79 87 83 146 156 148 167 184 203 189
204 214 215 212 217 218 214 218 225 229 222 209 202 199 194 190 187 186 181 177 179 185 187 190 196 199 205 205 200 188 178 176 178 173 127 358 234 201 184 200 215 211 210
Height
1511 1508 1504 1501 1498 1496 1494 1492 1491 1489 1488 1486 1486 1486 1486 1487 1488 1489 1491 1493 1495 1497 1500 1503 1506 1509 1512 1515 1519 1522 1526 1529 1532 1534 1536 1539 1541 1544 1545 1547 1549 1551 1553
1513 1510 1507 1504 1501 1498 1496 1494 1492 1491 1489 1488 1487 1487 1486 1487 1487 1488 1489 1490 1492 1494 1497 1499 1502 1505 1508 1511 1515 1518 1522 1525 1528 1530 1533 1536 1538 1541 1543 1545 1546 1548 1550
1516 1513 1510 1507 1503 1501 1499 1497 1495 1493 1491 1490 1489 1488 1487 1487 1487 1488 1489 1490 1491 1493 1495 1497 1499 1502 1505 1508 1512 1515 1518 1521 1525 1528 1530 1533 1535 1538 1540 1542 1544 1546 1548
1518 1515 1512 1509 1506 1504 1501 1499 1497 1495 1493 1491 1490 1489 1488 1488 1488 1488 1489 1489 1490 1491 1493 1496 1498 1501 1503 1506 1510 1513 1515 1519 1522 1525 1528 1531 1533 1536 1538 1540 1543 1545 1547
1520 1517 1514 1512 1509 1507 1504 1501 1499 1497 1495 1493 1492 1490 1490 1489 1489 1489 1489 1490 1490 1491 1493 1495 1497 1500 1502 1505 1508 1511 1514 1517 1520 1523 1526 1529 1532 1534 1537 1539 1542 1544 1546
1522 1519 1517 1514 1511 1509 1506 1503 1501 1499 1497 1495 1493 1492 1491 1490 1489 1489 1490 1490 1491 1492 1493 1495 1497 1499 1502 1505 1508 1510 1513 1516 1519 1522 1525 1528 1530 1533 1535 1538 1541 1543 1545
1524 1521 1519 1516 1513 1511 1508 1506 1503 1501 1499 1497 1495 1494 1492 1491 1491 1490 1491 1491 1492 1493 1494 1496 1498 1500 1503 1505 1508 1511 1513 1516 1519 1522 1525 1527 1530 1532 1534 1537 1540 1542 1544
1526 1523 1521 1518 1515 1513 1510 1508 1505 1503 1501 1499 1497 1496 1494 1493 1492 1492 1492 1492 1493 1494 1495 1497 1499 1502 1504 1507 1509 1512 1514 1517 1519 1522 1525 1528 1530 1532 1534 1536 1539 1541 1545
1527 1525 1522 1520 1517 1515 1512 1510 1508 1506 1504 1502 1500 1498 1496 1495 1494 1493 1494 1494 1495 1496 1497 1499 1501 1503 1506 1508 1511 1513 1516 1518 1521 1524 1526 1529 1531 1532 1534 1536 1539 1541 1544
1528 1526 1524 1522 1519 1517 1514 1512 1510 1508 1506 1505 1502 1500 1499 1497 1496 1495 1495 1496 1496 1497 1499 1501 1503 1505 1508 1511 1513 1515 1518 1521 1523 1525 1528 1530 1532 1534 1536 1537 1539 1541 1543
1529 1527 1526 1523 1521 1519 1516 1514 1513 1511 1509 1507 1505 1504 1501 1500 1498 1497 1497 1497 1498 1499 1501 1502 1505 1508 1510 1513 1515 1517 1520 1523 1525 1527 1530 1532 1534 1535 1537 1538 1540 1542 1544
1530 1529 1527 1525 1523 1521 1519 1516 1515 1513 1511 1510 1508 1506 1505 1503 1501 1500 1500 1500 1501 1501 1503 1504 1507 1510 1512 1515 1517 1520 1522 1525 1527 1529 1531 1533 1535 1536 1538 1539 1541 1542 1544
1531 1530 1528 1526 1525 1522 1520 1518 1516 1514 1513 1512 1510 1509 1507 1506 1505 1504 1503 1503 1503 1504 1506 1507 1510 1512 1515 1517 1519 1521 1524 1526 1528 1530 1532 1534 1536 1538 1539 1540 1541 1543 1544
1531 1530 1529 1528 1526 1524 1522 1520 1518 1516 1515 1513 1512 1511 1510 1509 1508 1507 1506 1506 1507 1508 1509 1511 1513 1515 1517 1519 1521 1523 1525 1528 1530 1531 1533 1535 1537 1538 1540 1541 1542 1543 1544
1531 1530 1530 1528 1527 1525 1524 1522 1520 1519 1517 1516 1514 1513 1512 1511 1510 1510 1510 1510 1510 1511 1513 1514 1516 1518 1519 1521 1523 1525 1527 1529 1531 1533 1534 1536 1537 1539 1540 1542 1543 1543 1544
1532 1531 1530 1529 1527 1526 1525 1523 1522 1521 1519 1518 1517 1515 1514 1514 1513 1513 1513 1513 1514 1515 1516 1517 1519 1520 1522 1524 1525 1527 1528 1530 1532 1533 1535 1537 1538 1539 1540 1542 1543 1544 1544
1530 1530 1529 1529 1528 1527 1526 1525 1523 1523 1521 1520 1519 1518 1517 1516 1516 1516 1516 1516 1517 1518 1519 1520 1521 1523 1524 1525 1527 1528 1529 1531 1532 1534 1535 1537 1538 1539 1540 1541 1543 1544 1544
1529 1528 1528 1527 1527 1527 1526 1526 1524 1523 1522 1521 1520 1519 1519 1518 1518 1518 1518 1519 1520 1520 1521 1522 1523 1524 1525 1526 1527 1529 1530 1531 1533 1534 1535 1536 1538 1539 1540 1541 1542 1543 1544
1527 1527 1526 1526 1526 1526 1526 1525 1524 1524 1523 1522 1521 1521 1520 1520 1520 1520 1520 1521 1521 1522 1522 1523 1524 1525 1526 1527 1528 1529 1530 1531 1532 1533 1534 1535 1537 1538 1539 1540 1541 1542 1543
1524 1524 1524 1524 1524 1524 1524 1524 1524 1523 1523 1522 1521 1521 1521 1520 1520 1521 1521 1521 1522 1522 1523 1523 1524 1525 1525 1526 1527 1528 1529 1530 1531 1532 1533 1534 1535 1536 1537 1538 1539 1540 1541
1521 1521 1521 1521 1521 1522 1522 1522 1522 1522 1522 1521 1521 1520 1520 1520 1520 1520 1521 1521 1521 1522 1522 1523 1523 1524 1525 1525 1526 1527 1529 1529 1530 1531 1532 1532 1533 1535 1536 1537 1538 1539 1540
1517 1518 1518 1518 1518 1519 1519 1520 1520 1520 1520 1520 1519 1519 1519 1519 1519 1519 1519 1519 1520 1520 1521 1521 1521 1522 1523 1524 1525 1526 1527 1528 1528 1529 1530 1531 1531 1532 1534 1535 1536 1537 1538
1513 1514 1514 1515 1515 1516 1516 1516 1517 1517 1518 1518 1517 1517 1517 1517 1517 1517 1517 1517 1518 1518 1518 1519 1519 1520 1520 1521 1522 1523 1524 1525 1526 1527 1528 1529 1529 1530 1531 1532 1533 1534 1535
1508 1509 1510 1511 1511 1512 1512 1512 1513 1514 1514 1515 1515 1515 1514 1514 1515 1515 1515 1515 1515 1516 1516 1516 1517 1517 1518 1518 1519 1520 1522 1522 1523 1524 1525 1526 1527 1528 1529 1530 1531 1532 1533
1502 1503 1504 1505 1506 1507 1508 1508 1509 1510 1511 1511 1512 1512 1512 1512 1512 1512 1512 1512 1513 1513 1513 1514 1514 1515 1515 1516 1516 1517 1518 1519 1520 1521 1522 1523 1524 1525 1526 1527 1528 1529 1530
1495 1497 1498 1500 1501 1502 1503 1504 1504 1505 1506 1507 1507 1508 1509 1509 1509 1509 1509 1509 1510 1510 1510 1511 1511 1512 1512 1513 1513 1514 1515 1516 1517 1518 1519 1520 1521 1522 1522 1523 1524 1525 1526